"startDT [UTC]","vpos","CH4 [ppm]","stdev(CH4) [ppm]","CO2 [ppm]","stdev(CO2) [ppm]","H2O [ppm]","stdev(H2O)","p_LGR [torr]","T_LGR [C]","mt1_LGR [us]","mt2_LGR [us]","T_ECpre [C]","T_EC1 [C]","T_EC2 [C]","p_inlet [hPa]","p_in [hPa]","p_out [hPa]","T_inlet [C]","RH_inlet [%]","dwpt_inlet [C]","T_vent [C]","RH_vent [%]","dwpt_vent [C]","flow_vent [l min-1]","flow_inlet [l min-1]","dwpt_sample [C]","T_room [C]"
2012-08-20 00:00:00,0.0,2.0044,0.0009,385.18,0.31,261.3,33.2,138.03,31.96,24.66,36.54,0.95,-25.75,18.64,-51,76,-925,26.9,26.8,6.2,26.7,1.5,-29.5,5.73,2.52,-26.8,30.7
2012-08-20 00:01:00,0.0,2.0045,0.0009,385.11,0.31,263.9,27.0,138.03,31.96,24.66,36.54,0.94,-25.75,18.66,-51,76,-925,26.9,26.8,6.2,26.7,1.5,-29.5,5.73,2.53,-26.7,30.7
2012-08-20 00:02:00,0.0,2.0036,0.0010,385.06,0.27,258.0,28.4,138.04,31.96,24.66,36.54,0.95,-25.75,18.68,-51,76,-925,26.9,26.8,6.2,26.7,1.5,-29.5,5.73,2.54,-26.8,30.6
2012-08-20 00:03:00,0.0,2.0027,0.0009,385.18,0.28,260.9,30.0,138.03,31.96,24.66,36.54,0.96,-25.75,18.70,-51,76,-925,26.9,26.8,6.2,26.7,1.5,-29.4,5.73,2.54,-26.8,30.6
2012-08-20 00:04:00,0.0,2.0033,0.0008,385.21,0.29,254.3,30.4,138.03,31.96,24.66,36.54,0.94,-25.76,18.72,-51,76,-925,26.9,26.9,6.2,26.7,1.5,-29.5,5.73,2.54,-26.8,30.7
2012-08-20 00:05:00,0.0,2.0021,0.0009,385.17,0.26,254.4,25.2,138.04,31.96,24.66,36.54,0.94,-25.75,18.75,-51,76,-925,26.9,26.9,6.2,26.7,1.5,-29.4,5.73,2.54,-26.8,30.6
2012-08-20 00:06:00,0.0,2.0021,0.0008,385.04,0.27,246.0,30.4,138.04,31.96,24.65,36.54,0.95,-25.75,18.76,-51,76,-925,26.9,26.8,6.2,26.7,1.5,-29.4,5.73,2.53,-26.7,30.6
2012-08-20 00:07:00,0.0,2.0012,0.0010,384.98,0.32,259.1,30.8,138.04,31.96,24.65,36.55,0.94,-25.75,18.78,-51,76,-925,26.9,26.8,6.2,26.7,1.5,-29.4,5.73,2.53,-26.8,30.6
2012-08-20 00:08:00,0.0,2.0012,0.0011,385.00,0.34,255.7,33.2,138.03,31.97,24.66,36.54,0.95,-25.74,18.80,-51,76,-925,26.9,26.6,6.1,26.7,1.5,-29.4,5.73,2.53,-26.8,30.6
2012-08-20 00:09:00,0.0,2.0012,0.0009,385.02,0.28,253.7,32.5,138.04,31.97,24.66,36.54,0.95,-25.75,18.81,-51,76,-925,26.9,26.6,6.1,26.7,1.5,-29.4,5.73,2.53,-26.7,30.6
2012-08-20 00:10:00,0.0,2.0005,0.0009,385.07,0.28,258.9,35.5,138.04,31.97,24.66,36.54,0.94,-25.75,18.83,-51,76,-925,26.9,26.4,6.0,26.7,1.5,-29.4,5.73,2.53,-26.7,30.7
2012-08-20 00:11:00,0.0,2.0014,0.0012,385.07,0.27,255.8,28.9,138.04,31.97,24.66,36.54,0.95,-25.74,18.85,-51,76,-925,26.9,26.3,5.9,26.7,1.5,-29.5,5.73,2.53,-26.7,30.7
2012-08-20 00:12:00,0.0,2.0022,0.0011,385.09,0.31,255.1,29.6,138.04,31.97,24.65,36.54,0.94,-25.74,18.86,-51,76,-925,26.9,26.4,5.9,26.7,1.5,-29.5,5.73,2.53,-26.8,30.6
2012-08-20 00:13:00,0.0,2.0026,0.0010,385.10,0.30,253.6,33.1,138.04,31.97,24.66,36.54,0.95,-25.74,18.88,-51,76,-925,26.9,26.6,6.0,26.7,1.5,-29.4,5.73,2.54,-26.8,30.6
2012-08-20 00:14:00,0.0,2.0034,0.0010,385.20,0.27,259.8,33.5,138.04,31.97,24.65,36.53,1.02,-25.74,18.31,-51,76,-925,26.9,26.7,6.1,26.7,1.5,-29.4,5.73,2.54,-26.8,30.7
2012-08-20 00:15:00,0.0,2.0027,0.0010,385.22,0.28,255.3,33.7,138.04,31.97,24.65,36.53,1.16,-25.73,16.32,-51,76,-925,26.9,26.7,6.1,26.7,1.5,-29.4,5.73,2.54,-26.7,30.6
2012-08-20 00:16:00,0.0,2.0020,0.0009,385.04,0.33,254.6,31.3,138.03,31.97,24.66,36.55,1.03,-25.75,13.97,-51,76,-925,26.9,26.5,6.0,26.7,1.5,-29.4,5.73,2.54,-26.8,30.6
2012-08-20 00:17:00,0.0,2.0017,0.0009,385.13,0.29,256.3,29.7,138.04,31.97,24.66,36.54,0.96,-25.79,11.59,-51,76,-925,26.9,26.5,6.0,26.7,1.5,-29.5,5.73,2.53,-26.8,30.6
2012-08-20 00:18:00,0.0,2.0025,0.0010,385.14,0.27,250.5,30.1,138.04,31.97,24.66,36.54,1.06,-25.83,9.26,-51,76,-925,26.9,26.6,6.1,26.7,1.5,-29.6,5.73,2.52,-26.8,30.4
2012-08-20 00:19:00,0.0,2.0036,0.0011,385.12,0.30,248.9,29.9,138.04,31.97,24.66,36.54,0.99,-25.84,7.02,-51,76,-925,26.9,26.8,6.1,26.6,1.5,-29.6,5.73,2.53,-26.8,30.4
2012-08-20 00:20:00,0.0,2.0020,0.0014,385.25,0.32,251.4,30.1,138.04,31.97,24.66,36.53,1.08,-25.84,4.90,-51,76,-925,26.8,26.8,6.2,26.6,1.5,-29.6,5.73,2.54,-26.8,30.3
2012-08-20 00:21:00,0.0,2.0002,0.0009,385.13,0.33,255.7,27.9,138.04,31.97,24.66,36.54,1.06,-25.85,2.88,-51,77,-925,26.8,26.8,6.1,26.6,1.5,-29.7,5.73,2.55,-26.9,30.3
2012-08-20 00:22:00,0.0,2.0001,0.0011,385.08,0.28,240.2,33.4,138.04,31.97,24.66,36.53,0.98,-25.85,0.97,-51,76,-925,26.8,26.8,6.1,26.6,1.5,-29.6,5.73,2.53,-26.9,30.3
2012-08-20 00:23:00,0.0,1.9991,0.0009,385.00,0.29,250.2,26.5,138.04,31.96,24.66,36.54,1.11,-25.85,-0.84,-51,77,-925,26.8,26.8,6.1,26.6,1.5,-29.7,5.73,2.52,-26.9,30.3
2012-08-20 00:24:00,0.0,1.9993,0.0010,385.00,0.31,248.9,32.0,138.04,31.96,24.66,36.54,1.02,-25.85,-2.55,-51,77,-925,26.8,27.1,6.3,26.6,1.5,-29.6,5.73,2.52,-26.9,30.3
2012-08-20 00:25:00,0.0,1.9993,0.0009,385.01,0.28,251.6,36.1,138.04,31.96,24.66,36.53,0.98,-25.86,-3.92,-51,77,-925,26.8,27.2,6.3,26.6,1.5,-29.7,5.73,2.54,-26.9,30.2
2012-08-20 00:26:00,0.0,1.9995,0.0010,384.85,0.30,252.7,33.6,138.04,31.95,24.66,36.54,1.09,-25.86,-5.08,-51,77,-925,26.8,27.1,6.3,26.6,1.5,-29.7,5.73,2.54,-26.9,30.2
2012-08-20 00:27:00,0.0,1.9995,0.0010,384.84,0.33,243.7,31.4,138.04,31.95,24.66,36.54,1.06,-25.85,-6.41,-51,77,-925,26.8,27.2,6.3,26.6,1.5,-29.7,5.73,2.52,-26.9,30.1
2012-08-20 00:28:00,0.0,1.9995,0.0010,384.94,0.28,251.8,32.3,138.04,31.95,24.65,36.54,0.98,-25.85,-7.58,-51,77,-925,26.8,27.3,6.3,26.6,1.5,-29.7,5.73,2.51,-26.9,30.1
2012-08-20 00:29:00,0.0,1.9991,0.0009,384.94,0.24,255.3,26.9,138.04,31.94,24.65,36.54,1.05,-25.86,-8.74,-51,77,-925,26.8,27.3,6.4,26.6,1.5,-29.7,5.73,2.53,-26.9,30.2
2012-08-20 00:30:00,0.0,1.9985,0.0009,384.99,0.28,256.5,37.8,138.04,31.94,24.66,36.54,1.08,-25.86,-9.91,-51,77,-925,26.7,27.4,6.4,26.5,1.5,-29.7,5.73,2.54,-26.9,30.1
2012-08-20 00:31:00,0.0,1.9980,0.0008,384.86,0.24,250.5,32.6,138.04,31.94,24.66,36.54,1.00,-25.87,-11.00,-51,77,-925,26.7,27.5,6.4,26.6,1.5,-29.7,5.73,2.53,-26.9,30.1
2012-08-20 00:32:00,0.0,1.9967,0.0009,384.82,0.29,254.9,30.0,138.04,31.93,24.66,36.54,1.01,-25.87,-12.05,-51,77,-925,26.7,27.5,6.4,26.5,1.5,-29.7,5.73,2.51,-26.9,30.1
2012-08-20 00:33:00,0.0,1.9983,0.0010,384.83,0.24,259.3,27.4,138.04,31.93,24.66,36.54,1.08,-25.88,-13.10,-51,77,-925,26.7,27.5,6.4,26.5,1.5,-29.7,5.73,2.52,-26.9,30.1
2012-08-20 00:34:00,0.0,1.9984,0.0010,384.81,0.28,257.8,29.9,138.04,31.93,24.66,36.54,1.02,-25.89,-14.09,-51,77,-925,26.7,27.5,6.4,26.5,1.5,-29.7,5.73,2.55,-26.9,30.1
2012-08-20 00:35:00,0.0,1.9985,0.0008,384.85,0.29,251.8,28.8,138.04,31.93,24.66,36.54,0.97,-25.90,-15.01,-51,77,-925,26.7,27.5,6.4,26.5,1.5,-29.7,5.73,2.53,-26.9,30.1
2012-08-20 00:36:00,0.0,1.9992,0.0011,384.88,0.31,249.9,30.9,138.04,31.92,24.66,36.54,1.05,-25.90,-15.89,-51,77,-925,26.7,27.5,6.4,26.5,1.5,-29.7,5.73,2.52,-26.9,30.1
2012-08-20 00:37:00,0.0,1.9991,0.0009,384.86,0.29,248.2,28.6,138.04,31.92,24.66,36.54,1.07,-25.92,-16.70,-51,77,-925,26.7,27.5,6.4,26.5,1.5,-29.7,5.73,2.51,-26.9,30.1
2012-08-20 00:38:00,0.0,1.9995,0.0009,384.73,0.29,245.8,29.4,138.04,31.92,24.66,36.54,0.98,-25.93,-17.42,-51,77,-925,26.7,27.6,6.5,26.5,1.5,-29.8,5.73,2.54,-26.9,30.1
2012-08-20 00:39:00,0.0,1.9994,0.0009,384.92,0.26,247.1,24.8,138.04,31.92,24.66,36.54,0.98,-25.94,-18.08,-51,77,-925,26.7,27.7,6.5,26.5,1.5,-29.7,5.73,2.54,-26.9,30.1
2012-08-20 00:40:00,0.0,1.9976,0.0010,384.93,0.29,255.6,29.3,138.04,31.91,24.65,36.53,1.06,-25.95,-18.78,-51,77,-925,26.7,27.7,6.5,26.5,1.5,-29.8,5.73,2.52,-27.0,30.1
2012-08-20 00:41:00,0.0,1.9961,0.0010,384.81,0.29,250.6,27.1,138.04,31.91,24.65,36.54,1.06,-25.96,-19.44,-51,77,-925,26.7,27.8,6.5,26.5,1.5,-29.7,5.73,2.51,-26.9,30.1
2012-08-20 00:42:00,0.0,1.9956,0.0008,384.80,0.30,254.1,30.7,138.04,31.91,24.66,36.54,0.98,-25.98,-20.06,-51,77,-925,26.7,27.7,6.5,26.5,1.5,-29.7,5.73,2.54,-27.0,30.1
2012-08-20 00:43:00,0.0,1.9958,0.0011,384.75,0.32,259.0,31.5,138.04,31.90,24.66,36.54,0.97,-25.99,-20.63,-51,77,-925,26.7,27.8,6.6,26.5,1.5,-29.7,5.73,2.55,-27.0,30.1
2012-08-20 00:44:00,0.0,1.9961,0.0008,384.73,0.31,250.1,31.0,138.04,31.90,24.66,36.54,1.05,-26.00,-21.18,-51,77,-925,26.7,27.9,6.6,26.5,1.5,-29.7,5.73,2.53,-27.0,30.1
2012-08-20 00:45:00,0.0,1.9960,0.0009,384.82,0.25,253.3,33.9,138.04,31.90,24.66,36.54,1.06,-26.01,-21.68,-51,77,-925,26.7,27.9,6.6,26.5,1.5,-29.7,5.73,2.52,-27.0,30.1
2012-08-20 00:46:00,0.0,1.9965,0.0009,384.80,0.35,252.9,26.9,138.04,31.90,24.65,36.54,0.98,-26.03,-22.16,-51,77,-925,26.7,27.9,6.6,26.5,1.5,-29.7,5.73,2.52,-27.0,30.1
2012-08-20 00:47:00,0.0,1.9964,0.0008,384.73,0.24,247.2,30.3,138.04,31.90,24.65,36.54,0.97,-26.04,-22.60,-51,77,-925,26.7,27.9,6.6,26.5,1.5,-29.8,5.73,2.54,-27.0,30.1
2012-08-20 00:48:00,0.0,1.9961,0.0010,384.77,0.24,254.0,30.2,138.04,31.90,24.66,36.54,1.04,-26.04,-23.02,-51,77,-925,26.7,27.9,6.6,26.5,1.5,-29.7,5.73,2.55,-27.0,30.0
2012-08-20 00:49:00,0.0,1.9964,0.0011,384.75,0.27,254.4,28.1,138.04,31.90,24.66,36.53,1.07,-26.06,-23.42,-51,77,-925,26.7,27.9,6.6,26.5,1.5,-29.7,5.73,2.51,-27.0,30.1
2012-08-20 00:50:00,0.0,1.9965,0.0010,384.74,0.29,251.8,30.4,138.04,31.90,24.66,36.54,0.99,-26.07,-23.79,-51,77,-925,26.7,27.9,6.6,26.5,1.5,-29.8,5.73,2.52,-27.0,30.1
2012-08-20 00:51:00,0.0,1.9968,0.0008,384.80,0.29,247.0,29.7,138.04,31.89,24.66,36.54,0.97,-26.08,-24.14,-51,77,-925,26.7,27.9,6.6,26.5,1.5,-29.7,5.73,2.54,-27.1,30.1
2012-08-20 00:52:00,0.0,1.9974,0.0009,384.83,0.29,246.6,35.0,138.04,31.89,24.65,36.54,1.02,-26.09,-24.48,-51,77,-925,26.7,27.9,6.6,26.5,1.5,-29.9,5.73,2.54,-27.1,30.1
2012-08-20 00:53:00,0.0,1.9967,0.0009,384.82,0.33,254.0,27.7,138.04,31.89,24.65,36.54,1.05,-26.11,-24.79,-51,77,-925,26.7,27.9,6.6,26.5,1.5,-29.9,5.73,2.52,-27.1,30.0
2012-08-20 00:54:00,0.0,1.9956,0.0011,384.67,0.26,250.6,33.7,138.04,31.89,24.66,36.55,1.03,-26.12,-25.09,-51,77,-925,26.7,28.0,6.6,26.5,1.5,-29.9,5.73,2.52,-27.1,30.1
2012-08-20 00:55:00,0.0,1.9949,0.0010,384.81,0.25,247.7,30.5,138.04,31.88,24.66,36.54,0.97,-26.12,-25.37,-51,77,-925,26.7,28.0,6.6,26.5,1.5,-30.0,5.73,2.55,-27.1,30.1
2012-08-20 00:56:00,0.0,1.9951,0.0008,384.90,0.27,246.3,25.3,138.04,31.88,24.66,36.54,0.99,-26.14,-25.63,-51,77,-925,26.7,28.0,6.6,26.5,1.5,-29.9,5.73,2.54,-27.1,30.2
2012-08-20 00:57:00,0.0,1.9956,0.0010,384.77,0.30,246.3,29.6,138.04,31.88,24.66,36.54,1.04,-26.15,-25.88,-51,77,-925,26.7,27.9,6.6,26.5,1.5,-29.9,5.73,2.52,-27.1,30.2
2012-08-20 00:58:00,0.0,1.9956,0.0011,384.89,0.29,250.3,29.3,138.04,31.88,24.66,36.54,1.04,-26.16,-26.11,-51,77,-925,26.7,27.9,6.6,26.5,1.5,-29.9,5.73,2.52,-27.1,30.1
2012-08-20 00:59:00,0.0,1.9954,0.0009,384.86,0.26,246.3,26.2,138.04,31.88,24.66,36.54,0.97,-26.17,-26.02,-51,77,-925,26.6,28.0,6.6,26.5,1.5,-29.9,5.73,2.54,-27.1,30.2
2012-08-20 01:00:00,0.0,1.9950,0.0009,384.88,0.32,246.7,29.6,138.04,31.87,24.66,36.53,1.00,-26.18,-25.94,-51,77,-925,26.7,28.1,6.7,26.5,1.5,-29.9,5.73,2.55,-27.2,30.1
2012-08-20 01:01:00,0.0,1.9948,0.0009,384.85,0.27,237.5,31.2,138.04,31.87,24.66,36.54,0.97,-26.19,-26.10,-51,77,-925,26.7,28.1,6.7,26.5,1.5,-29.9,5.73,2.53,-27.1,30.1
2012-08-20 01:02:00,0.0,1.9948,0.0010,384.90,0.29,242.2,26.8,138.04,31.87,24.66,36.54,0.94,-26.20,-26.13,-51,77,-925,26.7,28.0,6.7,26.5,1.5,-29.9,5.73,2.51,-27.1,30.1
2012-08-20 01:03:00,0.0,1.9941,0.0011,384.88,0.28,236.3,29.2,138.04,31.87,24.66,36.54,1.04,-26.22,-25.95,-51,77,-925,26.7,28.0,6.6,26.5,1.5,-30.0,5.73,2.52,-27.1,30.2
2012-08-20 01:04:00,0.0,1.9931,0.0009,384.87,0.31,241.2,29.0,138.04,31.87,24.65,36.54,1.08,-26.22,-26.09,-51,77,-925,26.7,27.9,6.6,26.5,1.5,-29.9,5.73,2.54,-27.2,30.3
2012-08-20 01:05:00,0.0,1.9927,0.0009,384.85,0.28,242.7,32.8,138.04,31.87,24.66,36.54,0.93,-26.23,-26.21,-51,77,-925,26.7,27.9,6.6,26.5,1.5,-29.9,5.73,2.54,-27.2,30.2
2012-08-20 01:06:00,0.0,1.9930,0.0009,384.96,0.32,234.4,32.6,138.04,31.87,24.66,36.54,0.98,-26.25,-25.97,-51,77,-925,26.7,27.8,6.5,26.5,1.5,-29.9,5.73,2.53,-27.2,30.2
2012-08-20 01:07:00,0.0,1.9932,0.0009,384.95,0.27,239.0,33.0,138.04,31.87,24.66,36.54,1.00,-26.25,-26.07,-51,77,-925,26.7,27.7,6.5,26.5,1.5,-30.1,5.73,2.51,-27.2,30.2
2012-08-20 01:08:00,0.0,1.9941,0.0012,384.94,0.27,237.4,24.8,138.04,31.87,24.66,36.54,1.05,-26.26,-26.25,-51,77,-925,26.7,27.8,6.5,26.5,1.4,-30.1,5.73,2.53,-27.2,30.1
2012-08-20 01:09:00,0.0,1.9942,0.0008,385.02,0.30,242.3,29.3,138.04,31.87,24.66,36.54,0.98,-26.26,-26.04,-51,77,-925,26.7,27.9,6.6,26.5,1.4,-30.1,5.73,2.54,-27.2,30.0
2012-08-20 01:10:00,0.0,1.9944,0.0008,384.98,0.31,237.2,30.5,138.04,31.87,24.65,36.54,1.00,-26.28,-26.06,-51,77,-925,26.7,28.0,6.6,26.5,1.4,-30.1,5.73,2.54,-27.2,30.0
2012-08-20 01:11:00,0.0,1.9942,0.0009,384.96,0.28,228.7,31.5,138.04,31.86,24.66,36.54,0.96,-26.28,-26.23,-50,77,-925,26.7,28.1,6.7,26.5,1.4,-30.1,5.73,2.52,-27.2,30.1
2012-08-20 01:12:00,0.0,1.9940,0.0009,385.01,0.25,228.6,28.1,138.04,31.86,24.66,36.53,0.97,-26.29,-26.15,-51,77,-925,26.7,28.2,6.7,26.5,1.4,-30.1,5.73,2.52,-27.3,30.1
2012-08-20 01:13:00,0.0,1.9936,0.0010,385.02,0.29,229.6,32.8,138.04,31.86,24.66,36.54,0.90,-25.88,-26.05,-51,77,-925,26.7,28.2,6.8,26.5,1.5,-30.1,5.73,2.53,-27.2,30.1
2012-08-20 01:14:00,0.0,1.9934,0.0009,384.89,0.28,250.5,35.1,138.04,31.86,24.66,36.55,0.93,-24.24,-26.18,-51,77,-925,26.7,28.2,6.8,26.5,1.5,-30.0,5.73,2.54,-27.1,30.2
2012-08-20 01:15:00,0.0,1.9934,0.0011,385.04,0.34,269.3,29.6,138.04,31.86,24.66,36.53,0.93,-22.31,-26.29,-50,77,-925,26.7,28.2,6.8,26.5,1.5,-29.5,5.73,2.53,-26.6,30.2
2012-08-20 01:16:00,0.0,1.9935,0.0009,384.94,0.27,302.8,30.6,138.04,31.86,24.66,36.54,0.94,-20.38,-26.37,-51,77,-925,26.7,28.2,6.7,26.5,1.7,-28.6,5.73,2.52,-26.2,30.2
2012-08-20 01:17:00,0.0,1.9936,0.0008,384.90,0.28,324.4,28.4,138.04,31.86,24.66,36.54,0.94,-18.53,-26.43,-51,77,-925,26.7,28.1,6.7,26.5,1.8,-27.9,5.73,2.52,-25.9,30.2
2012-08-20 01:18:00,0.0,1.9940,0.0009,384.87,0.33,341.3,25.4,138.04,31.86,24.65,36.55,0.92,-16.77,-26.46,-51,77,-925,26.7,28.0,6.7,26.5,1.8,-27.8,5.73,2.53,-25.7,30.3
2012-08-20 01:19:00,0.0,1.9939,0.0008,384.90,0.27,339.8,28.5,138.04,31.86,24.66,36.55,0.89,-15.11,-26.49,-51,77,-925,26.7,28.0,6.7,26.5,1.8,-27.7,5.73,2.53,-25.7,30.3
2012-08-20 01:20:00,0.0,1.9942,0.0009,384.87,0.32,338.2,27.3,138.04,31.86,24.66,36.54,0.87,-13.53,-26.50,-51,77,-925,26.7,27.9,6.6,26.5,1.8,-27.7,5.73,2.53,-25.7,30.3
2012-08-20 01:21:00,0.0,1.9938,0.0010,384.97,0.34,331.0,29.0,138.04,31.86,24.66,36.54,0.88,-12.03,-26.52,-51,77,-925,26.7,27.9,6.6,26.5,1.8,-27.9,5.73,2.53,-25.8,30.3
2012-08-20 01:22:00,0.0,1.9924,0.0010,384.94,0.25,334.8,28.3,138.04,31.86,24.66,36.55,0.91,-10.63,-26.53,-51,77,-925,26.7,27.9,6.6,26.5,1.7,-28.1,5.73,2.52,-25.8,30.4
2012-08-20 01:23:00,0.0,1.9917,0.0008,384.93,0.25,329.7,29.9,138.04,31.86,24.66,36.54,0.92,-9.29,-26.54,-51,77,-925,26.7,28.0,6.6,26.5,1.7,-28.3,5.73,2.52,-25.9,30.4
2012-08-20 01:24:00,0.0,1.9921,0.0008,384.96,0.29,320.9,28.0,138.04,31.86,24.66,36.54,0.92,-8.00,-26.54,-51,77,-925,26.7,28.0,6.7,26.5,1.7,-28.4,5.73,2.51,-25.9,30.5
2012-08-20 01:25:00,0.0,1.9918,0.0009,384.98,0.26,319.5,30.5,138.04,31.86,24.66,36.54,0.93,-6.79,-26.54,-51,77,-925,26.7,28.0,6.7,26.5,1.7,-28.5,5.73,2.53,-26.0,30.4
2012-08-20 01:26:00,0.0,1.9919,0.0007,384.90,0.30,310.1,30.5,138.04,31.86,24.66,36.54,0.94,-5.63,-26.54,-51,77,-925,26.7,28.0,6.7,26.6,1.7,-28.6,5.73,2.53,-26.1,30.5
2012-08-20 01:27:00,0.0,1.9909,0.0010,384.90,0.29,299.6,30.4,138.04,31.86,24.65,36.54,0.95,-4.54,-26.54,-51,77,-925,26.7,28.0,6.7,26.6,1.6,-28.7,5.73,2.53,-26.1,30.5
2012-08-20 01:28:00,0.0,1.9899,0.0009,384.94,0.25,300.4,37.8,138.04,31.86,24.66,36.54,0.94,-3.51,-26.54,-51,77,-925,26.7,28.0,6.7,26.6,1.6,-28.8,5.73,2.53,-26.2,30.5
2012-08-20 01:29:00,0.0,1.9902,0.0009,384.98,0.27,295.6,32.9,138.04,31.86,24.65,36.54,0.94,-2.52,-26.53,-51,77,-925,26.7,28.0,6.7,26.6,1.6,-29.0,5.73,2.52,-26.3,30.5
2012-08-20 01:30:00,0.0,1.9898,0.0010,385.03,0.31,290.3,25.9,138.04,31.87,24.66,36.54,0.95,-1.59,-26.53,-51,77,-925,26.7,28.0,6.7,26.6,1.6,-29.0,5.73,2.52,-26.3,30.5
2012-08-20 01:31:00,0.0,1.9905,0.0008,384.92,0.27,283.3,29.4,138.04,31.87,24.66,36.54,0.93,-0.71,-26.52,-51,77,-925,26.7,28.0,6.7,26.6,1.6,-29.1,5.73,2.52,-26.4,30.5
2012-08-20 01:32:00,0.0,1.9901,0.0009,385.02,0.30,283.5,28.6,138.04,31.87,24.66,36.54,0.94,0.13,-26.52,-51,77,-925,26.8,28.0,6.7,26.6,1.6,-29.1,5.73,2.52,-26.4,30.6
2012-08-20 01:33:00,0.0,1.9904,0.0009,384.98,0.30,277.6,30.7,138.04,31.87,24.66,36.54,0.91,0.93,-26.51,-51,77,-925,26.8,28.0,6.7,26.6,1.5,-29.3,5.73,2.53,-26.5,30.6
2012-08-20 01:34:00,0.0,1.9915,0.0010,385.08,0.25,266.2,29.0,138.04,31.87,24.66,36.54,0.93,1.67,-26.50,-51,77,-925,26.8,28.0,6.7,26.6,1.6,-29.3,5.73,2.54,-26.6,30.5
2012-08-20 01:35:00,0.0,1.9903,0.0011,385.18,0.27,275.9,31.4,138.04,31.87,24.66,36.54,0.92,2.35,-26.49,-51,77,-926,26.8,28.0,6.7,26.6,1.5,-29.5,5.73,2.53,-26.6,30.6
2012-08-20 01:36:00,0.0,1.9903,0.0010,385.18,0.29,269.9,27.0,138.04,31.87,24.65,36.54,0.93,2.79,-26.48,-51,77,-925,26.8,28.0,6.7,26.6,1.5,-29.5,5.73,2.52,-26.7,30.6
2012-08-20 01:37:00,0.0,1.9904,0.0008,385.18,0.30,271.0,28.0,138.04,31.87,24.66,36.54,0.92,2.95,-26.47,-51,77,-925,26.8,27.9,6.7,26.6,1.5,-29.5,5.73,2.52,-26.7,30.6
2012-08-20 01:38:00,0.0,1.9895,0.0008,384.99,0.28,260.0,30.2,138.04,31.87,24.66,36.55,0.92,3.23,-26.45,-51,77,-925,26.8,27.9,6.7,26.6,1.5,-29.6,5.73,2.52,-26.7,30.6
2012-08-20 01:39:00,0.0,1.9889,0.0009,385.20,0.29,257.3,25.6,138.04,31.87,24.66,36.53,0.92,3.62,-26.44,-51,77,-926,26.8,27.9,6.7,26.6,1.5,-29.7,5.73,2.52,-26.8,30.6
2012-08-20 01:40:00,0.0,1.9891,0.0009,385.17,0.28,255.5,29.6,138.04,31.88,24.66,36.54,0.91,4.04,-26.43,-51,77,-926,26.8,27.9,6.7,26.6,1.5,-29.6,5.73,2.53,-26.8,30.6
2012-08-20 01:41:00,0.0,1.9896,0.0009,385.15,0.33,258.1,29.2,138.04,31.88,24.65,36.54,0.94,4.52,-26.42,-51,77,-926,26.8,27.9,6.7,26.6,1.5,-29.7,5.73,2.54,-26.8,30.6
2012-08-20 01:42:00,0.0,1.9891,0.0010,385.11,0.35,255.6,29.5,138.04,31.88,24.66,36.54,0.92,5.01,-26.42,-51,77,-925,26.8,27.8,6.7,26.6,1.5,-29.7,5.73,2.53,-26.9,30.6
2012-08-20 01:43:00,0.0,1.9893,0.0011,385.20,0.25,250.5,28.2,138.04,31.88,24.66,36.54,0.93,5.47,-26.40,-51,77,-926,26.8,27.8,6.6,26.6,1.5,-29.7,5.73,2.52,-26.8,30.6
2012-08-20 01:44:00,0.0,1.9895,0.0009,385.08,0.29,243.8,29.4,138.04,31.88,24.66,36.55,0.94,5.92,-26.39,-51,77,-926,26.8,27.7,6.6,26.6,1.5,-29.7,5.73,2.51,-26.9,30.6
2012-08-20 01:45:00,0.0,1.9893,0.0008,385.20,0.28,250.7,29.6,138.03,31.88,24.66,36.54,0.92,6.38,-26.38,-51,77,-926,26.8,27.7,6.6,26.6,1.5,-29.8,5.73,2.51,-26.9,30.6
2012-08-20 01:46:00,0.0,1.9896,0.0009,385.22,0.31,245.4,29.9,138.04,31.89,24.66,36.54,0.94,6.87,-26.37,-51,77,-925,26.8,27.8,6.6,26.6,1.5,-29.8,5.73,2.53,-26.9,30.6
2012-08-20 01:47:00,0.0,1.9899,0.0009,385.13,0.29,241.6,26.3,138.04,31.89,24.65,36.54,0.94,7.40,-26.36,-51,77,-925,26.8,27.8,6.6,26.6,1.5,-29.9,5.73,2.53,-27.0,30.6
2012-08-20 01:48:00,0.0,1.9909,0.0011,385.23,0.32,251.7,31.7,138.04,31.89,24.65,36.54,0.94,7.84,-26.35,-51,77,-926,26.8,27.8,6.7,26.6,1.5,-29.9,5.73,2.53,-27.0,30.6
2012-08-20 01:49:00,0.0,1.9904,0.0008,385.16,0.27,239.7,33.6,138.04,31.89,24.66,36.54,0.95,8.25,-26.34,-51,77,-926,26.8,27.9,6.7,26.6,1.5,-29.9,5.73,2.53,-27.0,30.6
2012-08-20 01:50:00,0.0,1.9906,0.0009,385.34,0.30,238.8,32.4,138.04,31.89,24.66,36.54,0.95,8.65,-26.33,-51,77,-926,26.8,27.9,6.7,26.6,1.5,-29.9,5.73,2.53,-27.0,30.7
2012-08-20 01:51:00,0.0,1.9901,0.0011,385.37,0.25,245.9,29.3,138.04,31.89,24.65,36.54,0.94,9.02,-26.32,-51,77,-926,26.8,28.0,6.7,26.6,1.5,-29.9,5.73,2.51,-27.0,30.7
2012-08-20 01:52:00,0.0,1.9891,0.0009,385.31,0.30,235.8,32.7,138.03,31.89,24.66,36.54,0.94,9.39,-26.31,-51,77,-926,26.8,28.0,6.8,26.6,1.5,-29.9,5.73,2.51,-27.0,30.6
2012-08-20 01:53:00,0.0,1.9892,0.0010,385.26,0.29,248.0,31.1,138.04,31.89,24.66,36.54,0.94,9.74,-26.30,-51,77,-926,26.8,28.0,6.8,26.6,1.5,-29.8,5.73,2.52,-27.1,30.6
2012-08-20 01:54:00,0.0,1.9891,0.0010,385.27,0.32,238.1,31.6,138.04,31.89,24.66,36.54,0.94,10.08,-26.29,-51,77,-926,26.8,28.0,6.8,26.6,1.5,-29.8,5.73,2.52,-27.0,30.7
2012-08-20 01:55:00,0.0,1.9886,0.0012,385.33,0.30,243.5,25.9,138.03,31.89,24.66,36.54,0.95,10.41,-26.29,-51,77,-926,26.8,28.1,6.8,26.6,1.5,-29.9,5.73,2.53,-27.1,30.7
2012-08-20 01:56:00,0.0,1.9882,0.0009,385.30,0.28,241.8,30.0,138.04,31.89,24.66,36.54,0.94,10.73,-26.28,-51,77,-926,26.8,28.1,6.8,26.6,1.5,-29.8,5.73,2.53,-27.1,30.8
2012-08-20 01:57:00,0.0,1.9884,0.0009,385.28,0.26,229.2,30.3,138.04,31.89,24.66,36.54,0.93,11.04,-26.27,-51,77,-926,26.8,28.0,6.8,26.7,1.5,-29.8,5.73,2.53,-27.1,30.7
2012-08-20 01:58:00,0.0,1.9883,0.0010,385.27,0.29,238.9,34.6,138.04,31.89,24.66,36.54,0.95,11.34,-26.26,-51,77,-926,26.9,28.0,6.8,26.6,1.5,-29.8,5.73,2.52,-27.1,30.7
2012-08-20 01:59:00,0.0,1.9892,0.0011,385.39,0.28,236.5,27.9,138.03,31.89,24.65,36.54,0.93,11.62,-26.25,-51,77,-926,26.9,28.0,6.8,26.6,1.5,-29.9,5.73,2.51,-27.1,30.7
2012-08-20 02:00:00,0.0,1.9883,0.0010,385.39,0.26,232.4,29.5,138.03,31.90,24.66,36.54,0.94,11.90,-26.24,-51,77,-926,26.9,28.0,6.8,26.6,1.5,-29.8,5.73,2.51,-27.1,30.6
2012-08-20 02:01:00,0.0,1.9886,0.0009,385.45,0.31,231.6,26.1,138.03,31.90,24.66,36.54,0.94,12.15,-26.23,-51,77,-926,26.9,28.0,6.8,26.7,1.4,-30.0,5.73,2.51,-27.1,30.6
2012-08-20 02:02:00,0.0,1.9891,0.0010,385.43,0.33,240.6,32.5,138.04,31.90,24.66,36.54,0.95,12.41,-26.22,-51,77,-926,26.9,28.0,6.8,26.6,1.4,-30.1,5.73,2.52,-27.1,30.7
2012-08-20 02:03:00,0.0,1.9886,0.0010,385.41,0.29,236.3,30.9,138.04,31.90,24.66,36.54,0.94,12.66,-26.21,-51,77,-926,26.9,28.0,6.8,26.7,1.4,-30.0,5.73,2.53,-27.1,30.7
2012-08-20 02:04:00,0.0,1.9879,0.0008,385.45,0.34,225.9,33.1,138.04,31.90,24.66,36.54,0.94,12.89,-26.21,-51,77,-926,26.9,28.0,6.8,26.7,1.4,-30.0,5.73,2.53,-27.1,30.7
2012-08-20 02:05:00,0.0,1.9874,0.0010,385.51,0.30,233.0,31.8,138.03,31.90,24.66,36.54,0.94,13.11,-26.20,-51,77,-926,26.9,28.0,6.8,26.7,1.4,-30.0,5.73,2.53,-27.1,30.6
2012-08-20 02:06:00,0.0,1.9871,0.0009,385.49,0.35,230.1,25.9,138.04,31.91,24.66,36.54,0.93,13.33,-26.19,-51,77,-926,26.9,28.0,6.8,26.7,1.4,-30.0,5.73,2.52,-27.1,30.7
2012-08-20 02:07:00,0.0,1.9863,0.0010,385.46,0.29,234.0,31.8,138.03,31.91,24.66,36.54,0.95,13.53,-26.19,-51,77,-926,26.9,28.0,6.8,26.7,1.4,-30.1,5.73,2.52,-27.1,30.7
2012-08-20 02:08:00,0.0,1.9868,0.0009,385.47,0.27,232.6,29.3,138.04,31.91,24.66,36.54,0.95,13.74,-26.18,-51,77,-926,26.9,27.9,6.8,26.7,1.4,-30.0,5.73,2.51,-27.1,30.7
2012-08-20 02:09:00,0.0,1.9869,0.0009,385.52,0.34,239.7,30.3,138.04,31.91,24.66,36.53,0.94,13.93,-26.17,-51,77,-926,26.9,27.9,6.8,26.7,1.4,-30.0,5.73,2.51,-27.1,30.8
2012-08-20 02:10:00,0.0,1.9869,0.0010,385.25,0.30,230.5,28.9,138.03,31.91,24.66,36.55,0.94,14.12,-26.16,-51,77,-926,26.9,27.9,6.7,26.6,1.4,-30.1,5.73,2.52,-27.1,30.7
2012-08-20 02:11:00,0.0,1.9868,0.0009,385.41,0.28,229.4,29.4,138.03,31.91,24.66,36.54,0.94,14.29,-26.15,-51,77,-926,26.9,27.8,6.7,26.7,1.4,-30.0,5.73,2.53,-27.1,30.7
2012-08-20 02:12:00,0.0,1.9870,0.0009,385.35,0.32,229.8,27.2,138.04,31.91,24.66,36.55,0.94,14.47,-26.15,-51,76,-926,26.9,27.8,6.7,26.7,1.4,-30.1,5.73,2.53,-27.1,30.7
2012-08-20 02:13:00,0.0,1.9873,0.0011,385.64,0.31,230.6,24.3,138.04,31.91,24.66,36.53,0.94,14.63,-26.14,-51,77,-926,26.9,27.9,6.8,26.7,1.4,-30.0,5.73,2.53,-27.2,30.7
2012-08-20 02:14:00,0.0,1.9868,0.0010,385.50,0.29,237.3,30.0,138.03,31.91,24.65,36.54,0.94,14.78,-26.14,-51,77,-926,26.9,27.9,6.8,26.7,1.4,-30.0,5.73,2.52,-27.2,30.6
2012-08-20 02:15:00,0.0,1.9846,0.0010,385.44,0.32,237.0,29.1,138.04,31.92,24.66,36.54,0.94,14.93,-26.13,-51,76,-926,26.9,27.9,6.8,26.6,1.4,-30.1,5.73,2.52,-27.1,30.7
2012-08-20 02:16:00,0.0,1.9849,0.0011,385.44,0.32,234.9,30.7,138.04,31.92,24.66,36.54,0.95,15.08,-26.13,-51,76,-926,26.9,27.9,6.8,26.6,1.4,-30.1,5.73,2.51,-27.1,30.7
2012-08-20 02:17:00,0.0,1.9857,0.0010,385.50,0.31,231.2,27.2,138.03,31.92,24.65,36.54,0.94,15.21,-26.12,-51,77,-926,26.9,27.9,6.8,26.7,1.4,-30.0,5.73,2.52,-27.2,30.7
2012-08-20 02:18:00,0.0,1.9856,0.0009,385.53,0.31,236.6,30.5,138.04,31.92,24.66,36.54,0.94,15.34,-26.12,-51,76,-926,26.9,27.9,6.8,26.6,1.4,-30.0,5.73,2.52,-27.2,30.7
2012-08-20 02:19:00,0.0,1.9858,0.0010,385.41,0.29,236.9,31.2,138.03,31.92,24.65,36.54,0.95,15.47,-26.11,-51,77,-926,26.9,27.9,6.8,26.6,1.4,-30.1,5.73,2.52,-27.1,30.7
2012-08-20 02:20:00,0.0,1.9852,0.0009,385.28,0.29,233.9,31.8,138.03,31.92,24.66,36.55,0.94,15.58,-26.11,-51,76,-926,26.9,28.0,6.8,26.7,1.4,-30.0,5.73,2.53,-27.2,30.7